This is the latest recevied weather packets stored in our database for station/object KD9DOE. If no packets are shown the sender has not sent any weather packets the latest 10 day(s).
| Time | Temp. | Humidity | Pressure | Rain* | Wind** | Luminosity | Snow |
|---|---|---|---|---|---|---|---|
| 1777484762 | 10° C | 62% | 1015.2 hPa | 0 mm | - | 228 W/m² | - |
| 1777484458 | 10.56° C | 61% | 1015.3 hPa | 0 mm | - | 214 W/m² | - |
| 1777484155 | 10.56° C | 60% | 1015.3 hPa | 0 mm | - | 197 W/m² | - |
| 1777483851 | 11.11° C | 57% | 1015.2 hPa | 0 mm | - | 232 W/m² | - |
| 1777483548 | 11.11° C | 58% | 1015.3 hPa | 0 mm | - | 307 W/m² | - |
| 1777483243 | 11.11° C | 57% | 1015.3 hPa | 0 mm | - | 364 W/m² | - |
| 1777482940 | 10.56° C | 59% | 1015.3 hPa | 0 mm | - | 556 W/m² | - |
| 1777482636 | 10.56° C | 60% | 1015.3 hPa | 0 mm | - | 517 W/m² | - |
| 1777482333 | 10.56° C | 61% | 1015.4 hPa | 0 mm | - | 340 W/m² | - |
| 1777482030 | 10.56° C | 60% | 1015.4 hPa | 0 mm | - | 403 W/m² | - |
| 1777481728 | 10° C | 61% | 1015.5 hPa | 0 mm | - | 356 W/m² | - |
| 1777481425 | 10° C | 60% | 1015.4 hPa | 0 mm | - | 254 W/m² | - |
| 1777481121 | 10.56° C | 60% | 1015.5 hPa | 0 mm | - | 208 W/m² | - |
| 1777480818 | 10.56° C | 60% | 1015.6 hPa | 0 mm | - | 440 W/m² | - |
| 1777480515 | 10° C | 64% | 1015.6 hPa | 0 mm | - | 338 W/m² | - |
| 1777480211 | 10° C | 63% | 1015.5 hPa | 0 mm | - | 521 W/m² | - |
| 1777479908 | 9.44° C | 65% | 1015.7 hPa | 0 mm | - | 442 W/m² | - |
| 1777479604 | 8.89° C | 67% | 1015.6 hPa | 0 mm | - | 293 W/m² | - |
| 1777479302 | 8.89° C | 68% | 1015.5 hPa | 0 mm | - | 215 W/m² | - |
| 1777478998 | 8.89° C | 69% | 1015.7 hPa | 0 mm | - | 220 W/m² | - |
| 1777478695 | 8.33° C | 71% | 1015.5 hPa | 0 mm | - | 196 W/m² | - |
| 1777478391 | 8.33° C | 71% | 1015.5 hPa | 0 mm | - | 115 W/m² | - |
| 1777478088 | 8.33° C | 71% | 1015.4 hPa | 0 mm | - | 145 W/m² | - |
| 1777477784 | 8.33° C | 71% | 1015.5 hPa | 0 mm | - | 192 W/m² | - |
| 1777477480 | 8.33° C | 73% | 1015.6 hPa | 0 mm | - | 188 W/m² | - |
* Rain latest hour (hover to see other rain measurements)
** Current wind speed in m/s (hover to see current wind gust speed)